[[{"header":{"parameterUnit":"m.s-1","parameterCategory":1,"la1":30.2991,"la2":30.254,"lo1":-89.0895,"lo2":-89.0444,"dy":0.0017,"dx":0.0017,"nx":28,"ny":28,"refTime":"2026-01-09T09:00:00:Z","depth":0,"parameterNumber":2,"parameterNumberName":"U-component_of_WINDS"},"data":[0,0,0,0,0,0,0,0,0,0,0,0,0,0,0,0,0,0,0,0,0,0,0,0,0,0,0,0,0,0,0,0,0,0,0,0,0,0,0,0,0,0,0,0,0,0,0,0,0,0,0,0,0,0,0,0,0,0,-1.2192,-1.2192,0,-1.219,-1.219,-1.219,-1.2199,-1.2199,-1.2199,-1.2199,-1.2198,-1.2198,-1.2198,0,0,0,0,0,0,0,0,0,0,0,0,0,-1.2203,-1.2202,-1.2192,-1.2192,-1.2192,-1.219,-1.219,-1.219,-1.2199,-1.2199,-1.2199,-1.22,-1.2198,-1.2198,-1.2198,0,0,0,0,0,0,0,0,0,0,0,0,0,-1.2199,-1.2202,-1.2192,-1.2196,-1.2196,-1.219,-1.219,-1.219,-1.2199,-1.2199,-1.2199,-1.22,-1.2199,-1.2198,-1.2198,-1.2188,0,0,-1.2197,-1.2196,0,0,0,0,0,0,0,0,-1.2199,-1.2199,-1.2195,-1.2196,-1.2196,-1.2195,-1.2193,-1.2189,-1.2199,-1.2198,-1.22,-1.22,-1.2197,-1.2197,-1.2196,-1.2188,-1.2188,-1.2196,-1.2196,-1.2196,-1.2196,0,0,0,0,0,0,0,-1.22,-1.2199,-1.2191,-1.2195,-1.2196,-1.2198,-1.2198,-1.2193,-1.2195,-1.2198,-1.2198,-1.2198,-1.2197,-1.2196,-1.2196,-1.2188,-1.2197,-1.2196,-1.2196,-1.2196,-1.217,-1.217,0,0,0,0,0,0,-1.2199,-1.2199,-1.2191,-1.2191,-1.2199,-1.2197,-1.2197,-1.2195,-1.2195,-1.2196,-1.2198,-1.2199,-1.2196,-1.2196,-1.2196,-1.2183,-1.2196,-1.2196,-1.2195,-1.217,-1.217,-1.2169,0,0,0,0,0,0,-1.2199,-1.2198,-1.2191,-1.2195,-1.2194,-1.2197,-1.2194,-1.2195,-1.2193,-1.2195,-1.2196,-1.2196,-1.2197,-1.2196,-1.2189,-1.2183,-1.2196,-1.2195,-1.2171,-1.217,-1.217,-1.2157,0,0,0,0,0,0,-1.22,-1.2199,-1.2195,-1.2195,-1.2194,-1.2185,-1.2194,-1.2194,-1.2193,-1.2194,-1.2194,-1.2194,-1.2197,-1.219,-1.2189,-1.2182,-1.2195,-1.2172,-1.2171,-1.217,-1.2158,-1.2156,-1.2155,0,0,0,0,0,-1.22,-1.2192,-1.2195,-1.2194,-1.2189,-1.2184,-1.2184,-1.2187,-1.2192,-1.2188,-1.2189,-1.2194,-1.2184,-1.2189,-1.2188,-1.2181,-1.2172,-1.2171,-1.217,-1.2159,-1.2157,-1.2155,0,0,0,0,0,0,-1.2191,-1.2192,-1.2195,-1.2187,-1.2185,-1.2186,-1.2181,-1.2185,-1.2182,-1.2183,-1.2188,-1.2188,-1.218,-1.218,-1.2186,-1.2171,-1.2179,-1.2178,-1.2171,-1.2169,-1.2167,-1.2166,-1.2195,0,0,0,0,0,-1.2188,-1.2184,-1.2185,-1.2177,-1.2177,-1.2179,-1.2177,-1.2179,-1.2178,-1.2178,-1.2179,-1.2178,-1.2174,-1.2172,-1.2169,-1.2159,-1.2158,-1.2154,-1.2152,-1.2151,-1.2149,-1.2143,-1.214,-1.2166,-1.2166,-1.2166,0,0,-1.2182,-1.2182,-1.2179,-1.2176,-1.2175,-1.217,-1.2178,-1.2173,-1.217,-1.2177,-1.217,-1.2171,-1.217,-1.2161,-1.2157,-1.2161,-1.2142,-1.2149,-1.2148,-1.2147,-1.2141,-1.2139,-1.2137,-1.2165,-1.2166,-1.2166,0,0,-1.2168,-1.2168,-1.2161,-1.216,-1.2159,-1.216,-1.2158,-1.2158,-1.2159,-1.2152,-1.2157,-1.2153,-1.2147,-1.2146,-1.2144,-1.2129,-1.2133,-1.2128,-1.2118,-1.2112,-1.2109,-1.2108,-1.2101,-1.2098,-1.2127,-1.2127,-1.2127,0,-1.2161,-1.2153,-1.2157,-1.2151,-1.2149,-1.2155,-1.2148,-1.2147,-1.2145,-1.2143,-1.2147,-1.2139,-1.2139,-1.213,-1.2126,-1.2125,-1.2122,-1.2127,-1.2109,-1.2108,-1.2106,-1.2099,-1.2097,-1.2126,-1.2126,-1.2126,-1.2126,0,-1.2144,-1.2138,-1.2133,-1.213,-1.2127,-1.2121,-1.2123,-1.212,-1.2123,-1.2124,-1.2116,-1.2116,-1.2113,-1.2111,-1.2114,-1.2101,-1.2103,-1.2109,-1.2116,-1.2103,-1.2097,-1.2094,-1.2125,-1.2125,-1.2125,-1.2126,0,0,-1.2124,-1.2122,-1.212,-1.2118,-1.2117,-1.2113,-1.2106,-1.2102,-1.2099,-1.2097,-1.2091,-1.2086,-1.209,-1.2089,-1.2092,-1.2086,-1.2072,-1.2092,-1.2092,-1.2087,-1.2057,-1.2052,-1.2049,-1.2075,-1.2075,-1.2075,-1.2056,0,-1.2109,-1.2097,-1.21,-1.2088,-1.2083,-1.2088,-1.2083,-1.2081,-1.2082,-1.2077,-1.2078,-1.2074,-1.2081,-1.2079,-1.2074,-1.2075,-1.2066,-1.2077,-1.2069,-1.2069,-1.2067,-1.2046,-1.2041,-1.2024,-1.2054,-1.2054,-1.2053,0,-1.209,-1.2086,-1.2074,-1.2072,-1.207,-1.2065,-1.2061,-1.2057,-1.2055,-1.2056,-1.2053,-1.2057,-1.205,-1.2058,-1.2048,-1.2055,-1.2053,-1.2052,-1.2052,-1.205,-1.2059,-1.2042,-1.2018,-1.2015,-1.205,-1.205,-1.205,0,-1.2075,-1.2067,-1.2058,-1.2057,-1.2055,-1.2051,-1.205,-1.2049,-1.2046,-1.2042,-1.204,-1.2036,-1.2034,-1.2031,-1.2033,-1.2039,-1.2022,-1.2031,-1.2022,-1.2022,-1.2017,-1.2017,-1.1991,-1.2018,-1.2018,-1.2018,-1.2018,0,-1.2057,-1.2049,-1.2051,-1.2046,-1.2036,-1.204,-1.2031,-1.203,-1.2029,-1.2023,-1.2028,-1.2023,-1.2027,-1.2022,-1.2024,-1.2014,-1.2014,-1.2014,-1.2014,-1.2012,-1.2012,-1.2009,-1.201,-1.2017,-1.2017,-1.2017,-1.2018,0,-1.2039,-1.204,-1.203,-1.2029,-1.2029,-1.2022,-1.202,-1.2015,-1.2016,-1.2008,-1.2007,-1.2008,-1.2002,-1.2004,-1.1999,-1.2,-1.1987,-1.199,-1.1987,-1.1988,-1.1977,-1.1978,-1.1948,-1.1943,-1.1974,-1.1974,-1.1974,0,-1.2027,-1.202,-1.2018,-1.2014,-1.2012,-1.2007,-1.2003,-1.2006,-1.2002,-1.1999,-1.1994,-1.1988,-1.1984,-1.1974,-1.1974,-1.1969,-1.1971,-1.1961,-1.197,-1.1968,-1.1969,-1.1968,-1.1967,-1.1958,-1.1958,-1.1958,-1.1957,0,-1.2005,-1.2005,-1.2,-1.1995,-1.199,-1.1986,-1.1983,-1.198,-1.1982,-1.1978,-1.1971,-1.1968,-1.1961,-1.1955,-1.195,-1.1949,-1.1953,-1.1955,-1.1952,-1.1949,-1.1947,-1.1946,-1.1981,-1.1955,-1.1955,-1.1955,-1.1956,-1.1956,-1.1988,-1.1982,-1.1979,-1.1972,-1.197,-1.1966,-1.1961,-1.196,-1.1955,-1.1949,-1.1951,-1.1943,-1.1941,-1.1935,-1.1933,-1.1927,-1.1931,-1.1927,-1.1926,-1.1925,-1.1923,-1.1949,-1.1926,-1.1926,-1.1927,-1.1927,-1.1927,0,-1.1965,-1.1963,-1.1957,-1.1951,-1.1946,-1.195,-1.1947,-1.1942,-1.1935,-1.1932,-1.1927,-1.1919,-1.1913,-1.1912,-1.1906,-1.1901,-1.1903,-1.1899,-1.1899,-1.1898,-1.192,-1.1922,-1.1898,-1.1898,-1.1898,-1.1898,-1.1898,-1.1898,-1.1952,-1.1941,-1.1942,-1.1929,-1.1928,-1.1919,-1.1917,-1.1913,-1.1911,-1.1901,-1.1896,-1.1895,-1.1893,-1.1887,-1.1881,-1.1881,-1.1878,-1.1874,-1.1874,-1.1894,-1.1897,-1.19,-1.1902,-1.1873,-1.1873,-1.1853,-1.1852,-1.1852]},{"header":{"parameterUnit":"m.s-1","parameterCategory":1,"la1":30.2991,"la2":30.254,"lo1":-89.0895,"lo2":-89.0444,"dy":0.0017,"dx":0.0017,"nx":28,"ny":28,"refTime":"2026-01-09T09:00:00:Z","depth":0,"parameterNumber":3,"parameterNumberName":"V-component_of_WINDS"},"data":[0,0,0,0,0,0,0,0,0,0,0,0,0,0,0,0,0,0,0,0,0,0,0,0,0,0,0,0,0,0,0,0,0,0,0,0,0,0,0,0,0,0,0,0,0,0,0,0,0,0,0,0,0,0,0,0,0,0,3.6815,3.6815,0,3.6843,3.6844,3.6844,3.6806,3.6805,3.6803,3.6802,3.6831,3.6833,3.6835,0,0,0,0,0,0,0,0,0,0,0,0,0,3.6727,3.6729,3.6815,3.6815,3.6815,3.6843,3.6844,3.6844,3.6806,3.6805,3.6803,3.6801,3.683,3.6832,3.6835,0,0,0,0,0,0,0,0,0,0,0,0,0,3.6761,3.6729,3.6815,3.68,3.6799,3.6843,3.6844,3.6844,3.6807,3.6805,3.6803,3.6801,3.6829,3.6832,3.6835,3.6895,0,0,3.6844,3.6846,0,0,0,0,0,0,0,0,3.6759,3.6765,3.6802,3.6801,3.68,3.6819,3.6823,3.6861,3.6807,3.6804,3.6802,3.68,3.6828,3.6831,3.6841,3.6896,3.6898,3.6845,3.6847,3.6848,3.6849,0,0,0,0,0,0,0,3.6757,3.6763,3.6826,3.6802,3.6801,3.6792,3.6794,3.683,3.6827,3.6804,3.6801,3.6805,3.6827,3.6838,3.6842,3.6898,3.6845,3.6847,3.6849,3.685,3.7006,3.7009,0,0,0,0,0,0,3.6757,3.6761,3.6825,3.6827,3.6774,3.6795,3.6798,3.6815,3.6827,3.6826,3.6807,3.6803,3.6834,3.6838,3.6842,3.6916,3.6848,3.6851,3.6853,3.7004,3.7007,3.7009,0,0,0,0,0,0,3.6755,3.6763,3.6824,3.6793,3.6801,3.6799,3.6818,3.6817,3.6827,3.6829,3.6828,3.6819,3.6833,3.6838,3.6883,3.6916,3.6852,3.6855,3.7001,3.7005,3.7008,3.7061,0,0,0,0,0,0,3.6752,3.6762,3.6785,3.6794,3.6802,3.6864,3.682,3.6819,3.6833,3.6829,3.684,3.684,3.6832,3.6879,3.6886,3.6919,3.6857,3.6998,3.7003,3.7007,3.7056,3.7066,3.7074,0,0,0,0,0,3.6749,3.6798,3.6786,3.6794,3.6831,3.6866,3.687,3.686,3.6836,3.6859,3.686,3.6839,3.6911,3.6883,3.6891,3.6926,3.6996,3.7002,3.7007,3.7052,3.7064,3.7074,0,0,0,0,0,0,3.6791,3.6799,3.6786,3.6839,3.6852,3.6859,3.6888,3.6873,3.6893,3.6888,3.6874,3.6877,3.6926,3.693,3.6899,3.6986,3.695,3.6957,3.6982,3.6993,3.7001,3.7,3.686,0,0,0,0,0,3.6807,3.6835,3.684,3.6886,3.6893,3.689,3.6904,3.6896,3.6909,3.6914,3.6919,3.6932,3.6958,3.6975,3.6998,3.7056,3.7059,3.7084,3.7093,3.71,3.7107,3.714,3.7152,3.7027,3.7026,3.7026,0,0,3.6839,3.6846,3.6865,3.6894,3.6904,3.6934,3.6895,3.6927,3.695,3.6919,3.6963,3.6966,3.698,3.7033,3.7056,3.7038,3.7142,3.7107,3.7112,3.7115,3.7147,3.7159,3.7169,3.703,3.7029,3.7029,0,0,3.6913,3.6921,3.6961,3.6972,3.6987,3.6985,3.6995,3.7005,3.7006,3.705,3.7028,3.7054,3.7098,3.711,3.7122,3.7203,3.7185,3.721,3.7257,3.729,3.73,3.7309,3.734,3.7351,3.7217,3.7217,3.7217,0,3.6951,3.6996,3.6984,3.7019,3.7034,3.7008,3.705,3.706,3.7082,3.7093,3.7072,3.7129,3.7136,3.7192,3.7212,3.7222,3.7234,3.721,3.7299,3.7308,3.7316,3.7346,3.7357,3.722,3.722,3.722,3.7219,0,3.7043,3.7074,3.7105,3.7129,3.7146,3.7184,3.7179,3.7198,3.7188,3.7188,3.7234,3.7242,3.7268,3.728,3.727,3.7335,3.7324,3.7302,3.7265,3.7332,3.7359,3.737,3.7225,3.7224,3.7223,3.7222,0,0,3.7145,3.7162,3.7174,3.7185,3.7201,3.7225,3.7262,3.7288,3.7306,3.7322,3.7355,3.7393,3.7373,3.7387,3.7378,3.7406,3.7473,3.738,3.7381,3.74,3.7548,3.7567,3.758,3.7461,3.7463,3.7464,3.7548,0,3.7221,3.7287,3.7278,3.7342,3.7372,3.7348,3.7381,3.7395,3.7396,3.7421,3.7422,3.7451,3.7421,3.743,3.7457,3.7459,3.7503,3.7452,3.7492,3.7494,3.7492,3.7594,3.7613,3.7692,3.7559,3.756,3.7562,0,3.7319,3.7341,3.7408,3.7421,3.7433,3.7462,3.7487,3.7511,3.7526,3.7525,3.7542,3.7528,3.7566,3.7528,3.7582,3.7548,3.7564,3.7568,3.757,3.7575,3.7533,3.7604,3.7717,3.7729,3.7578,3.7577,3.7576,0,3.739,3.7435,3.7482,3.7492,3.7507,3.7529,3.7537,3.755,3.7567,3.7588,3.7599,3.7624,3.7638,3.7658,3.7652,3.7624,3.7708,3.7669,3.771,3.771,3.773,3.7729,3.7849,3.7736,3.7736,3.7736,3.7736,0,3.7478,3.752,3.7514,3.7543,3.759,3.758,3.7627,3.7631,3.7643,3.7673,3.7653,3.7682,3.7671,3.7699,3.7694,3.7741,3.7747,3.7748,3.7747,3.7752,3.7752,3.7763,3.7758,3.7739,3.7738,3.7738,3.7737,0,3.7566,3.7563,3.7613,3.7624,3.7628,3.7662,3.7672,3.77,3.7699,3.7738,3.7746,3.7746,3.7778,3.7773,3.7809,3.7806,3.7865,3.7856,3.786,3.7859,3.7901,3.7899,3.8034,3.8053,3.7926,3.7927,3.7928,0,3.7623,3.7655,3.7671,3.769,3.7699,3.7729,3.7747,3.7738,3.7758,3.7778,3.7804,3.7834,3.7858,3.7911,3.7914,3.7942,3.7935,3.798,3.7939,3.7943,3.7939,3.7938,3.7942,3.7989,3.7991,3.7992,3.7993,0,3.7726,3.7723,3.775,3.7777,3.7799,3.782,3.7838,3.7855,3.7847,3.787,3.7903,3.7922,3.7959,3.7991,3.8017,3.8025,3.8009,3.8006,3.8017,3.8023,3.8026,3.8028,3.7886,3.8003,3.8002,3.8001,3.8001,3.8,3.7802,3.7831,3.7847,3.7878,3.7891,3.7909,3.7936,3.794,3.7968,3.7998,3.799,3.8029,3.8044,3.8078,3.8089,3.8119,3.8102,3.8118,3.8123,3.8128,3.8134,3.8019,3.8123,3.8123,3.8123,3.8123,3.8122,0,3.7906,3.7916,3.7944,3.7971,3.7996,3.7978,3.7998,3.8021,3.8055,3.8071,3.8095,3.8135,3.8165,3.8171,3.8201,3.8224,3.8218,3.8232,3.8232,3.8235,3.8146,3.8134,3.8237,3.8237,3.8237,3.8237,3.8237,3.8237,3.7963,3.8012,3.8012,3.8067,3.8076,3.8114,3.8127,3.8145,3.8158,3.8203,3.8229,3.8232,3.8245,3.8276,3.8304,3.8305,3.8317,3.8336,3.8334,3.8252,3.824,3.8229,3.8219,3.8338,3.8338,3.8421,3.8422,3.8422]}]]